Time,TemperatureF,DewpointF,PressureIn,WindDirection,WindDirectionDegrees,WindSpeedMPH,WindSpeedGustMPH,Humidity,HourlyPrecipIn,Conditions,Clouds,dailyrainin,SoftwareType,DateUTC
2013-07-23 00:01:00,70.6,47.0,29.77,SE,135,0.0,1.0,43,0.00,,---,0.00,VWS V13.00,2013-07-23 07:01:00,
2013-07-23 00:06:00,70.2,46.7,29.77,SE,134,0.0,1.0,43,0.00,,---,0.00,VWS V13.00,2013-07-23 07:06:00,
2013-07-23 00:11:00,69.8,46.9,29.77,SE,134,0.0,1.0,44,0.00,,---,0.00,VWS V13.00,2013-07-23 07:11:00,
2013-07-23 00:16:00,69.4,46.6,29.77,SE,135,0.0,1.0,44,0.00,,---,0.00,VWS V13.00,2013-07-23 07:16:00,
2013-07-23 00:21:00,69.0,46.8,29.77,SE,135,0.0,1.0,45,0.00,,---,0.00,VWS V13.00,2013-07-23 07:21:00,
2013-07-23 00:26:00,68.6,47.0,29.78,SE,135,0.0,1.0,46,0.00,,---,0.00,VWS V13.00,2013-07-23 07:26:00,
2013-07-23 00:31:00,68.2,46.7,29.78,SE,134,0.0,0.0,46,0.00,,---,0.00,VWS V13.00,2013-07-23 07:31:00,
2013-07-23 00:36:00,67.9,47.0,29.78,SE,134,0.0,1.0,47,0.00,,---,0.00,VWS V13.00,2013-07-23 07:36:00,
2013-07-23 00:41:00,67.4,47.0,29.78,SE,135,0.0,1.0,48,0.00,,---,0.00,VWS V13.00,2013-07-23 07:41:00,
2013-07-23 00:46:00,67.0,46.7,29.78,SE,135,0.0,2.0,48,0.00,,---,0.00,VWS V13.00,2013-07-23 07:46:00,
2013-07-23 00:51:00,66.5,46.8,29.79,SE,135,0.0,2.0,49,0.00,,---,0.00,VWS V13.00,2013-07-23 07:51:00,
2013-07-23 00:56:00,66.1,46.9,29.79,SE,135,0.0,2.0,50,0.00,,---,0.00,VWS V13.00,2013-07-23 07:56:00,
2013-07-23 01:01:00,65.7,47.1,29.78,SE,134,0.0,1.0,51,0.00,,---,0.00,VWS V13.00,2013-07-23 08:01:00,
2013-07-23 01:06:00,65.3,47.2,29.79,SE,135,0.0,1.0,52,0.00,,---,0.00,VWS V13.00,2013-07-23 08:06:00,
2013-07-23 01:11:00,64.8,46.8,29.79,SE,135,0.0,2.0,52,0.00,,---,0.00,VWS V13.00,2013-07-23 08:11:00,
2013-07-23 01:16:00,64.4,46.9,29.79,SE,134,0.0,2.0,53,0.00,,---,0.00,VWS V13.00,2013-07-23 08:16:00,
2013-07-23 01:21:00,64.0,46.5,29.79,SE,134,0.0,2.0,53,0.00,,---,0.00,VWS V13.00,2013-07-23 08:21:00,
2013-07-23 01:26:00,63.7,46.3,29.79,SE,134,0.0,2.0,53,0.00,,---,0.00,VWS V13.00,2013-07-23 08:26:00,
2013-07-23 01:31:00,63.4,46.5,29.80,SE,135,0.0,0.0,54,0.00,,---,0.00,VWS V13.00,2013-07-23 08:31:00,
2013-07-23 01:36:00,63.1,46.2,29.80,SE,135,0.0,1.0,54,0.00,,---,0.00,VWS V13.00,2013-07-23 08:36:00,
2013-07-23 01:41:00,62.8,45.9,29.80,SE,135,1.0,2.0,54,0.00,,---,0.00,VWS V13.00,2013-07-23 08:41:00,
2013-07-23 01:46:00,62.4,46.0,29.80,SE,134,2.0,3.0,55,0.00,,---,0.00,VWS V13.00,2013-07-23 08:46:00,
2013-07-23 01:51:00,62.1,46.2,29.80,SE,134,2.0,3.0,56,0.00,,---,0.00,VWS V13.00,2013-07-23 08:51:00,
2013-07-23 01:56:00,61.7,45.9,29.80,SE,135,2.0,3.0,56,0.00,,---,0.00,VWS V13.00,2013-07-23 08:56:00,
2013-07-23 02:01:00,61.3,46.0,29.80,SE,135,2.0,3.0,57,0.00,,---,0.00,VWS V13.00,2013-07-23 09:01:00,
2013-07-23 02:06:00,60.9,45.6,29.80,SE,135,0.0,3.0,57,0.00,,---,0.00,VWS V13.00,2013-07-23 09:06:00,
2013-07-23 02:11:00,60.6,45.8,29.79,SE,134,0.0,3.0,58,0.00,,---,0.00,VWS V13.00,2013-07-23 09:11:00,
2013-07-23 02:16:00,60.3,45.5,29.80,SE,135,2.0,3.0,58,0.00,,---,0.00,VWS V13.00,2013-07-23 09:16:00,
2013-07-23 02:21:00,60.0,45.7,29.80,SE,135,3.0,3.0,59,0.00,,---,0.00,VWS V13.00,2013-07-23 09:21:00,
2013-07-23 02:26:00,59.7,45.4,29.80,SE,134,2.0,3.0,59,0.00,,---,0.00,VWS V13.00,2013-07-23 09:26:00,
2013-07-23 02:31:00,59.4,45.5,29.80,SE,134,1.0,2.0,60,0.00,,---,0.00,VWS V13.00,2013-07-23 09:31:00,
2013-07-23 02:36:00,59.0,45.6,29.80,SE,135,2.0,3.0,61,0.00,,---,0.00,VWS V13.00,2013-07-23 09:36:00,
2013-07-23 02:41:00,59.0,45.6,29.80,SE,135,2.0,3.0,61,0.00,,---,0.00,VWS V13.00,2013-07-23 09:41:00,
2013-07-23 02:46:00,58.8,45.4,29.80,SE,135,2.0,3.0,61,0.00,,---,0.00,VWS V13.00,2013-07-23 09:46:00,
2013-07-23 02:51:00,58.5,45.5,29.80,SE,135,1.0,3.0,62,0.00,,---,0.00,VWS V13.00,2013-07-23 09:51:00,
2013-07-23 02:56:00,58.4,45.5,29.81,SE,134,0.0,3.0,62,0.00,,---,0.00,VWS V13.00,2013-07-23 09:56:00,
2013-07-23 03:01:00,58.2,45.3,29.81,SE,134,2.0,3.0,62,0.00,,---,0.00,VWS V13.00,2013-07-23 10:01:00,
2013-07-23 03:06:00,58.0,45.1,29.81,SE,134,0.0,3.0,62,0.00,,---,0.00,VWS V13.00,2013-07-23 10:06:00,
2013-07-23 03:11:00,58.0,45.5,29.81,SE,135,0.0,3.0,63,0.00,,---,0.00,VWS V13.00,2013-07-23 10:11:00,
2013-07-23 03:16:00,57.9,45.4,29.81,SE,135,1.0,3.0,63,0.00,,---,0.00,VWS V13.00,2013-07-23 10:16:00,
2013-07-23 03:21:00,57.8,45.3,29.81,SE,134,2.0,3.0,63,0.00,,---,0.00,VWS V13.00,2013-07-23 10:21:00,
2013-07-23 03:26:00,57.7,45.6,29.81,SE,134,2.0,3.0,64,0.00,,---,0.00,VWS V13.00,2013-07-23 10:26:00,
2013-07-23 03:31:00,57.5,45.4,29.81,SE,135,2.0,2.0,64,0.00,,---,0.00,VWS V13.00,2013-07-23 10:31:00,
2013-07-23 03:36:00,57.4,45.3,29.82,SE,134,1.0,3.0,64,0.00,,---,0.00,VWS V13.00,2013-07-23 10:36:00,
2013-07-23 03:41:00,57.2,45.6,29.82,SE,134,0.0,3.0,65,0.00,,---,0.00,VWS V13.00,2013-07-23 10:41:00,
2013-07-23 03:46:00,57.0,45.8,29.82,SE,135,1.0,3.0,66,0.00,,---,0.00,VWS V13.00,2013-07-23 10:46:00,
2013-07-23 03:51:00,56.8,45.6,29.82,SE,135,0.0,3.0,66,0.00,,---,0.00,VWS V13.00,2013-07-23 10:51:00,
2013-07-23 03:56:00,56.8,46.0,29.82,SE,135,0.0,3.0,67,0.00,,---,0.00,VWS V13.00,2013-07-23 10:56:00,
2013-07-23 04:01:00,56.6,45.8,29.82,SE,134,0.0,2.0,67,0.00,,---,0.00,VWS V13.00,2013-07-23 11:01:00,
2013-07-23 04:06:00,56.5,46.1,29.82,SE,134,0.0,2.0,68,0.00,,---,0.00,VWS V13.00,2013-07-23 11:06:00,
2013-07-23 04:11:00,56.3,45.9,29.83,SE,135,0.0,2.0,68,0.00,,---,0.00,VWS V13.00,2013-07-23 11:11:00,
2013-07-23 04:16:00,56.2,45.8,29.83,SE,135,1.0,2.0,68,0.00,,---,0.00,VWS V13.00,2013-07-23 11:16:00,
2013-07-23 04:21:00,56.0,46.0,29.83,SE,134,0.0,2.0,69,0.00,,---,0.00,VWS V13.00,2013-07-23 11:21:00,
2013-07-23 04:26:00,55.9,45.9,29.83,SE,135,0.0,2.0,69,0.00,,---,0.00,VWS V13.00,2013-07-23 11:26:00,
2013-07-23 04:31:00,55.8,45.8,29.84,SE,135,1.0,2.0,69,0.00,,---,0.00,VWS V13.00,2013-07-23 11:31:00,
2013-07-23 04:36:00,55.6,45.6,29.84,SE,134,0.0,2.0,69,0.00,,---,0.00,VWS V13.00,2013-07-23 11:36:00,
2013-07-23 04:41:00,55.4,45.8,29.84,SE,134,0.0,2.0,70,0.00,,---,0.00,VWS V13.00,2013-07-23 11:41:00,
2013-07-23 04:46:00,55.2,45.6,29.84,SE,134,0.0,2.0,70,0.00,,---,0.00,VWS V13.00,2013-07-23 11:46:00,
2013-07-23 04:51:00,55.0,45.4,29.84,SE,135,0.0,2.0,70,0.00,,---,0.00,VWS V13.00,2013-07-23 11:51:00,
2013-07-23 04:55:00,54.9,45.3,29.84,SE,135,0.0,2.0,70,0.00,,---,0.00,VWS V13.00,2013-07-23 11:55:00,
2013-07-23 05:00:00,54.8,45.6,29.85,SE,135,0.0,0.0,71,0.00,,---,0.00,VWS V13.00,2013-07-23 12:00:00,
2013-07-23 05:05:00,54.6,45.4,29.85,SE,134,0.0,2.0,71,0.00,,---,0.00,VWS V13.00,2013-07-23 12:05:00,
2013-07-23 05:10:00,54.5,45.3,29.85,SE,135,0.0,2.0,71,0.00,,---,0.00,VWS V13.00,2013-07-23 12:10:00,
2013-07-23 05:15:00,54.4,45.6,29.85,SE,135,0.0,2.0,72,0.00,,---,0.00,VWS V13.00,2013-07-23 12:15:00,
2013-07-23 05:20:00,54.3,45.5,29.86,SE,135,0.0,2.0,72,0.00,,---,0.00,VWS V13.00,2013-07-23 12:20:00,
2013-07-23 05:25:00,54.2,45.4,29.86,SE,134,0.0,2.0,72,0.00,,---,0.00,VWS V13.00,2013-07-23 12:25:00,
2013-07-23 05:30:00,54.1,45.3,29.86,SE,134,1.0,3.0,72,0.00,,---,0.00,VWS V13.00,2013-07-23 12:30:00,
2013-07-23 05:35:00,53.9,45.1,29.86,SE,135,1.0,3.0,72,0.00,,---,0.00,VWS V13.00,2013-07-23 12:35:00,
2013-07-23 05:40:00,53.7,44.9,29.86,SE,134,0.0,3.0,72,0.00,,---,0.00,VWS V13.00,2013-07-23 12:40:00,
2013-07-23 05:45:00,53.6,45.2,29.86,SE,134,2.0,3.0,73,0.00,,---,0.00,VWS V13.00,2013-07-23 12:45:00,
2013-07-23 05:50:00,53.5,45.1,29.86,SE,135,0.0,3.0,73,0.00,,---,0.00,VWS V13.00,2013-07-23 12:50:00,
2013-07-23 05:55:00,53.3,45.2,29.87,SE,135,0.0,3.0,74,0.00,,---,0.00,VWS V13.00,2013-07-23 12:55:00,
2013-07-23 06:00:00,53.3,45.2,29.87,SE,135,0.0,1.0,74,0.00,,---,0.00,VWS V13.00,2013-07-23 13:00:00,
2013-07-23 06:05:00,53.3,45.2,29.87,SE,135,0.0,1.0,74,0.00,,---,0.00,VWS V13.00,2013-07-23 13:05:00,
2013-07-23 06:10:00,53.3,45.2,29.87,SE,134,0.0,1.0,74,0.00,,---,0.00,VWS V13.00,2013-07-23 13:10:00,
2013-07-23 06:15:00,53.4,45.7,29.88,SE,135,0.0,1.0,75,0.00,,---,0.00,VWS V13.00,2013-07-23 13:15:00,
2013-07-23 06:20:00,53.6,45.5,29.87,SE,135,0.0,1.0,74,0.00,,---,0.00,VWS V13.00,2013-07-23 13:20:00,
2013-07-23 06:25:00,53.8,46.1,29.87,SE,135,0.0,1.0,75,0.00,,---,0.00,VWS V13.00,2013-07-23 13:25:00,
2013-07-23 06:30:00,54.2,46.5,29.88,SE,134,0.0,1.0,75,0.00,,---,0.00,VWS V13.00,2013-07-23 13:30:00,
2013-07-23 06:35:00,54.6,47.2,29.88,SE,135,0.0,1.0,76,0.00,,---,0.00,VWS V13.00,2013-07-23 13:35:00,
2013-07-23 06:40:00,55.2,47.8,29.88,SE,135,0.0,1.0,76,0.00,,---,0.00,VWS V13.00,2013-07-23 13:40:00,
2013-07-23 06:45:00,55.9,48.1,29.87,SE,135,0.0,1.0,75,0.00,,---,0.00,VWS V13.00,2013-07-23 13:45:00,
2013-07-23 06:50:00,56.4,48.9,29.88,SE,134,0.0,1.0,76,0.00,,---,0.00,VWS V13.00,2013-07-23 13:50:00,
2013-07-23 06:55:00,57.0,49.5,29.88,SE,135,0.0,1.0,76,0.00,,---,0.00,VWS V13.00,2013-07-23 13:55:00,
2013-07-23 07:00:00,57.5,49.7,29.88,SE,134,0.0,0.0,75,0.00,,---,0.00,VWS V13.00,2013-07-23 14:00:00,
2013-07-23 07:05:00,58.1,49.9,29.89,SE,135,0.0,0.0,74,0.00,,---,0.00,VWS V13.00,2013-07-23 14:05:00,
2013-07-23 07:10:00,58.6,50.3,29.88,SE,135,0.0,0.0,74,0.00,,---,0.00,VWS V13.00,2013-07-23 14:10:00,
2013-07-23 07:15:00,59.0,50.4,29.88,SE,134,0.0,1.0,73,0.00,,---,0.00,VWS V13.00,2013-07-23 14:15:00,
2013-07-23 07:20:00,59.5,50.8,29.88,SE,135,0.0,1.0,73,0.00,,---,0.00,VWS V13.00,2013-07-23 14:20:00,
2013-07-23 07:25:00,59.9,50.9,29.88,SE,135,0.0,1.0,72,0.00,,---,0.00,VWS V13.00,2013-07-23 14:25:00,
2013-07-23 07:30:00,60.6,50.0,29.88,SE,135,0.0,3.0,68,0.00,,---,0.00,VWS V13.00,2013-07-23 14:30:00,
2013-07-23 07:35:00,61.5,50.0,29.88,East,83,2.0,4.0,66,0.00,,---,0.00,VWS V13.00,2013-07-23 14:35:00,
2013-07-23 07:40:00,62.3,49.6,29.88,East,82,0.0,4.0,63,0.00,,---,0.00,VWS V13.00,2013-07-23 14:40:00,
2013-07-23 07:45:00,62.8,49.2,29.88,NNE,15,3.0,4.0,61,0.00,,---,0.00,VWS V13.00,2013-07-23 14:45:00,
2013-07-23 07:50:00,63.1,49.9,29.88,NNE,15,3.0,4.0,62,0.00,,---,0.00,VWS V13.00,2013-07-23 14:50:00,
2013-07-23 07:55:00,63.3,50.1,29.88,NNE,15,0.0,4.0,62,0.00,,---,0.00,VWS V13.00,2013-07-23 14:55:00,
2013-07-23 08:00:00,63.6,49.9,29.89,NNE,15,1.0,2.0,61,0.00,,---,0.00,VWS V13.00,2013-07-23 15:00:00,
2013-07-23 08:05:00,63.9,50.2,29.89,NNE,15,1.0,2.0,61,0.00,,---,0.00,VWS V13.00,2013-07-23 15:05:00,
2013-07-23 08:10:00,64.2,50.9,29.89,NNE,15,0.0,2.0,62,0.00,,---,0.00,VWS V13.00,2013-07-23 15:10:00,
2013-07-23 08:15:00,64.5,50.8,29.89,NNE,15,0.0,2.0,61,0.00,,---,0.00,VWS V13.00,2013-07-23 15:15:00,
2013-07-23 08:20:00,64.8,50.2,29.89,NNE,15,0.0,2.0,59,0.00,,---,0.00,VWS V13.00,2013-07-23 15:20:00,
2013-07-23 08:25:00,65.2,51.0,29.89,NNE,15,0.0,2.0,60,0.00,,---,0.00,VWS V13.00,2013-07-23 15:25:00,
2013-07-23 08:30:00,65.4,51.6,29.89,NNE,14,0.0,0.0,61,0.00,,---,0.00,VWS V13.00,2013-07-23 15:30:00,
2013-07-23 08:35:00,65.7,52.8,29.89,NNE,14,0.0,1.0,63,0.00,,---,0.00,VWS V13.00,2013-07-23 15:35:00,
2013-07-23 08:40:00,65.8,51.5,29.89,NNE,14,0.0,1.0,60,0.00,,---,0.00,VWS V13.00,2013-07-23 15:40:00,
2013-07-23 08:45:00,66.0,51.7,29.89,NNE,15,0.0,1.0,60,0.00,,---,0.00,VWS V13.00,2013-07-23 15:45:00,
2013-07-23 08:50:00,66.2,51.9,29.89,NNE,15,0.0,1.0,60,0.00,,---,0.00,VWS V13.00,2013-07-23 15:50:00,
2013-07-23 08:55:00,66.5,51.3,29.89,NNE,14,0.0,2.0,58,0.00,,---,0.00,VWS V13.00,2013-07-23 15:55:00,
2013-07-23 09:00:00,66.8,52.5,29.90,NE,55,0.0,3.0,60,0.00,,---,0.00,VWS V13.00,2013-07-23 16:00:00,
2013-07-23 09:05:00,67.4,52.1,29.90,East,98,1.0,4.0,58,0.00,,---,0.00,VWS V13.00,2013-07-23 16:05:00,
2013-07-23 09:10:00,68.1,53.2,29.89,East,98,0.0,4.0,59,0.00,,---,0.00,VWS V13.00,2013-07-23 16:10:00,
2013-07-23 09:15:00,68.7,51.9,29.89,East,98,0.0,4.0,55,0.00,,---,0.00,VWS V13.00,2013-07-23 16:15:00,
2013-07-23 09:20:00,69.3,50.9,29.90,ENE,76,0.0,4.0,52,0.00,,---,0.00,VWS V13.00,2013-07-23 16:20:00,
2013-07-23 09:25:00,69.8,50.9,29.89,ENE,76,0.0,4.0,51,0.00,,---,0.00,VWS V13.00,2013-07-23 16:25:00,
2013-07-23 09:30:00,70.3,51.9,29.89,ENE,76,0.0,1.0,52,0.00,,---,0.00,VWS V13.00,2013-07-23 16:30:00,
2013-07-23 09:35:00,70.7,52.2,29.89,ENE,76,0.0,2.0,52,0.00,,---,0.00,VWS V13.00,2013-07-23 16:35:00,
2013-07-23 09:40:00,71.2,51.6,29.89,ENE,76,0.0,2.0,50,0.00,,---,0.00,VWS V13.00,2013-07-23 16:40:00,
2013-07-23 09:45:00,71.6,53.1,29.89,ENE,75,1.0,3.0,52,0.00,,---,0.00,VWS V13.00,2013-07-23 16:45:00,
2013-07-23 09:50:00,72.0,52.9,29.89,ENE,75,0.0,3.0,51,0.00,,---,0.00,VWS V13.00,2013-07-23 16:50:00,
2013-07-23 09:55:00,72.5,52.8,29.89,ENE,75,2.0,3.0,50,0.00,,---,0.00,VWS V13.00,2013-07-23 16:55:00,
2013-07-23 10:00:00,72.9,52.6,29.90,SE,125,5.0,5.0,49,0.00,,---,0.00,VWS V13.00,2013-07-23 17:00:00,
2013-07-23 10:05:00,73.5,52.6,29.90,ESE,113,0.0,5.0,48,0.00,,---,0.00,VWS V13.00,2013-07-23 17:05:00,
2013-07-23 10:10:00,74.1,53.7,29.90,ESE,113,0.0,5.0,49,0.00,,---,0.00,VWS V13.00,2013-07-23 17:10:00,
2013-07-23 10:15:00,74.4,52.3,29.90,ESE,113,0.0,5.0,46,0.00,,---,0.00,VWS V13.00,2013-07-23 17:15:00,
2013-07-23 10:20:00,74.7,53.2,29.89,ESE,113,0.0,5.0,47,0.00,,---,0.00,VWS V13.00,2013-07-23 17:20:00,
2013-07-23 10:25:00,75.1,51.7,29.89,SSE,159,6.0,6.0,44,0.00,,---,0.00,VWS V13.00,2013-07-23 17:25:00,
2013-07-23 10:30:00,75.7,52.3,29.89,SSE,159,2.0,4.0,44,0.00,,---,0.00,VWS V13.00,2013-07-23 17:30:00,
2013-07-23 10:35:00,76.2,52.7,29.89,ESE,110,0.0,4.0,44,0.00,,---,0.00,VWS V13.00,2013-07-23 17:35:00,
2013-07-23 10:40:00,76.9,53.3,29.89,ESE,118,0.0,5.0,44,0.00,,---,0.00,VWS V13.00,2013-07-23 17:40:00,
2013-07-23 10:45:00,77.5,53.9,29.89,SSE,168,1.0,5.0,44,0.00,,---,0.00,VWS V13.00,2013-07-23 17:45:00,
2013-07-23 10:50:00,78.1,52.5,29.89,SSE,159,0.0,5.0,41,0.00,,---,0.00,VWS V13.00,2013-07-23 17:50:00,
2013-07-23 10:56:00,78.7,52.4,29.88,SE,128,6.0,7.0,40,0.00,,---,0.00,VWS V13.00,2013-07-23 17:56:00,
2013-07-23 11:01:00,79.2,52.1,29.89,SE,128,0.0,1.0,39,0.00,,---,0.00,VWS V13.00,2013-07-23 18:01:00,
2013-07-23 11:06:00,79.9,52.8,29.89,SSE,150,4.0,9.0,39,0.00,,---,0.00,VWS V13.00,2013-07-23 18:06:00,
2013-07-23 11:11:00,80.5,53.3,29.89,SE,125,5.0,9.0,39,0.00,,---,0.00,VWS V13.00,2013-07-23 18:11:00,
2013-07-23 11:16:00,81.0,53.7,29.88,SSE,163,3.0,9.0,39,0.00,,---,0.00,VWS V13.00,2013-07-23 18:16:00,
2013-07-23 11:22:00,81.6,53.6,29.88,SE,132,0.0,9.0,38,0.00,,---,0.00,VWS V13.00,2013-07-23 18:22:00,
2013-07-23 11:27:00,82.1,52.5,29.88,ESE,109,0.0,9.0,36,0.00,,---,0.00,VWS V13.00,2013-07-23 18:27:00,
2013-07-23 11:32:00,82.6,53.0,29.88,East,101,0.0,3.0,36,0.00,,---,0.00,VWS V13.00,2013-07-23 18:32:00,
2013-07-23 11:37:00,83.1,55.6,29.88,East,101,0.0,3.0,39,0.00,,---,0.00,VWS V13.00,2013-07-23 18:37:00,
2013-07-23 11:43:00,83.6,55.3,29.88,ESE,114,4.0,6.0,38,0.00,,---,0.00,VWS V13.00,2013-07-23 18:43:00,
2013-07-23 11:48:00,83.9,51.8,29.88,West,260,0.0,6.0,33,0.00,,---,0.00,VWS V13.00,2013-07-23 18:48:00,
2013-07-23 11:53:00,84.4,53.8,29.88,ESE,105,0.0,6.0,35,0.00,,---,0.00,VWS V13.00,2013-07-23 18:53:00,
2013-07-23 11:58:00,85.0,54.3,29.87,ESE,109,0.0,6.0,35,0.00,,---,0.00,VWS V13.00,2013-07-23 18:58:00,
2013-07-23 12:03:00,85.4,53.0,29.88,ESE,109,0.0,1.0,33,0.00,,---,0.00,VWS V13.00,2013-07-23 19:03:00,
2013-07-23 12:09:00,85.9,55.1,29.87,ESE,103,0.0,1.0,35,0.00,,---,0.00,VWS V13.00,2013-07-23 19:09:00,
2013-07-23 12:14:00,86.6,53.3,29.87,East,86,0.0,3.0,32,0.00,,---,0.00,VWS V13.00,2013-07-23 19:14:00,
2013-07-23 12:20:00,87.2,56.2,29.87,ESE,121,0.0,3.0,35,0.00,,---,0.00,VWS V13.00,2013-07-23 19:20:00,
2013-07-23 12:25:00,87.8,53.4,29.86,North,10,0.0,4.0,31,0.00,,---,0.00,VWS V13.00,2013-07-23 19:25:00,
2013-07-23 12:30:00,88.4,54.8,29.86,North,349,4.0,5.0,32,0.00,,---,0.00,VWS V13.00,2013-07-23 19:30:00,
2013-07-23 12:35:00,88.6,54.1,29.86,SSE,157,6.0,10.0,31,0.00,,---,0.00,VWS V13.00,2013-07-23 19:35:00,
2013-07-23 12:41:00,89.1,53.7,29.85,SSE,155,0.0,10.0,30,0.00,,---,0.00,VWS V13.00,2013-07-23 19:41:00,
2013-07-23 12:46:00,89.5,56.6,29.85,ENE,67,1.0,10.0,33,0.00,,---,0.00,VWS V13.00,2013-07-23 19:46:00,
2013-07-23 12:51:00,89.8,54.3,29.85,ESE,119,0.0,10.0,30,0.00,,---,0.00,VWS V13.00,2013-07-23 19:51:00,
2013-07-23 12:56:00,90.3,52.8,29.85,ESE,118,0.0,10.0,28,0.00,,---,0.00,VWS V13.00,2013-07-23 19:56:00,
2013-07-23 13:01:00,90.7,55.0,29.86,ESE,109,2.0,5.0,30,0.00,,---,0.00,VWS V13.00,2013-07-23 20:01:00,
2013-07-23 13:06:00,91.1,55.4,29.85,East,90,0.0,7.0,30,0.00,,---,0.00,VWS V13.00,2013-07-23 20:06:00,
2013-07-23 13:12:00,91.5,51.8,29.85,WNW,299,3.0,7.0,26,0.00,,---,0.00,VWS V13.00,2013-07-23 20:12:00,
2013-07-23 13:17:00,91.6,52.9,29.85,SSE,164,3.0,7.0,27,0.00,,---,0.00,VWS V13.00,2013-07-23 20:17:00,
2013-07-23 13:22:00,92.0,53.3,29.85,South,184,5.0,7.0,27,0.00,,---,0.00,VWS V13.00,2013-07-23 20:22:00,
2013-07-23 13:27:00,92.3,52.5,29.84,NW,313,1.0,7.0,26,0.00,,---,0.00,VWS V13.00,2013-07-23 20:27:00,
2013-07-23 13:32:00,92.5,51.6,29.84,West,276,0.0,4.0,25,0.00,,---,0.00,VWS V13.00,2013-07-23 20:32:00,
2013-07-23 13:37:00,92.7,52.8,29.84,West,277,0.0,4.0,26,0.00,,---,0.00,VWS V13.00,2013-07-23 20:37:00,
2013-07-23 13:42:00,93.2,55.3,29.84,North,10,0.0,5.0,28,0.00,,---,0.00,VWS V13.00,2013-07-23 20:42:00,
2013-07-23 13:47:00,94.0,53.9,29.83,SE,133,0.0,5.0,26,0.00,,---,0.00,VWS V13.00,2013-07-23 20:47:00,
2013-07-23 13:53:00,94.4,54.3,29.83,WSW,247,5.0,5.0,26,0.00,,---,0.00,VWS V13.00,2013-07-23 20:53:00,
2013-07-23 13:58:00,94.9,53.6,29.83,ESE,120,1.0,10.0,25,0.00,,---,0.00,VWS V13.00,2013-07-23 20:58:00,
2013-07-23 14:03:00,95.1,52.7,29.83,SSE,163,2.0,8.0,24,0.00,,---,0.00,VWS V13.00,2013-07-23 21:03:00,
2013-07-23 14:08:00,95.2,51.6,29.83,SE,126,6.0,10.0,23,0.00,,---,0.00,VWS V13.00,2013-07-23 21:08:00,
2013-07-23 14:14:00,95.3,55.0,29.83,ESE,110,0.0,10.0,26,0.00,,---,0.00,VWS V13.00,2013-07-23 21:14:00,
2013-07-23 14:19:00,95.7,54.3,29.83,ESE,116,1.0,10.0,25,0.00,,---,0.00,VWS V13.00,2013-07-23 21:19:00,
2013-07-23 14:24:00,95.9,52.2,29.83,SSE,147,4.0,11.0,23,0.00,,---,0.00,VWS V13.00,2013-07-23 21:24:00,
2013-07-23 14:29:00,96.1,51.1,29.83,SSE,162,0.0,5.0,22,0.00,,---,0.00,VWS V13.00,2013-07-23 21:29:00,
2013-07-23 14:34:00,96.1,49.9,29.82,South,175,3.0,5.0,21,0.00,,---,0.00,VWS V13.00,2013-07-23 21:34:00,
2013-07-23 14:39:00,96.2,51.2,29.83,SSW,209,3.0,7.0,22,0.00,,---,0.00,VWS V13.00,2013-07-23 21:39:00,
2013-07-23 14:44:00,96.3,48.8,29.82,South,173,3.0,9.0,20,0.00,,---,0.00,VWS V13.00,2013-07-23 21:44:00,
2013-07-23 14:49:00,96.2,48.7,29.82,South,169,0.0,9.0,20,0.00,,---,0.00,VWS V13.00,2013-07-23 21:49:00,
2013-07-23 14:54:00,96.3,50.0,29.82,SE,141,5.0,13.0,21,0.00,,---,0.00,VWS V13.00,2013-07-23 21:54:00,
2013-07-23 14:59:00,96.4,50.1,29.82,SE,143,10.0,10.0,21,0.00,,---,0.00,VWS V13.00,2013-07-23 21:59:00,
2013-07-23 15:05:00,96.5,48.9,29.82,ESE,112,0.0,10.0,20,0.00,,---,0.00,VWS V13.00,2013-07-23 22:05:00,
2013-07-23 15:10:00,96.8,49.2,29.82,WSW,241,0.0,10.0,20,0.00,,---,0.00,VWS V13.00,2013-07-23 22:10:00,
2013-07-23 15:15:00,97.2,49.5,29.82,SW,226,0.0,10.0,20,0.00,,---,0.00,VWS V13.00,2013-07-23 22:15:00,
2013-07-23 15:20:00,97.4,49.7,29.81,SSE,150,6.0,10.0,20,0.00,,---,0.00,VWS V13.00,2013-07-23 22:20:00,
2013-07-23 15:25:00,97.3,48.2,29.81,SE,132,6.0,14.0,19,0.00,,---,0.00,VWS V13.00,2013-07-23 22:25:00,
2013-07-23 15:30:00,97.0,48.0,29.81,SE,130,2.0,9.0,19,0.00,,---,0.00,VWS V13.00,2013-07-23 22:30:00,
2013-07-23 15:35:00,96.9,51.8,29.81,SE,145,1.0,9.0,22,0.00,,---,0.00,VWS V13.00,2013-07-23 22:35:00,
2013-07-23 15:41:00,96.9,46.4,29.81,North,355,3.0,9.0,18,0.00,,---,0.00,VWS V13.00,2013-07-23 22:41:00,
2013-07-23 15:46:00,97.0,49.3,29.81,SSE,165,2.0,9.0,20,0.00,,---,0.00,VWS V13.00,2013-07-23 22:46:00,
2013-07-23 15:51:00,97.4,53.4,29.80,South,172,0.0,9.0,23,0.00,,---,0.00,VWS V13.00,2013-07-23 22:51:00,
2013-07-23 15:56:00,97.8,48.6,29.80,ESE,113,0.0,9.0,19,0.00,,---,0.00,VWS V13.00,2013-07-23 22:56:00,
2013-07-23 16:01:00,98.0,48.8,29.80,East,88,0.0,4.0,19,0.00,,---,0.00,VWS V13.00,2013-07-23 23:01:00,
2013-07-23 16:07:00,97.6,49.8,29.80,South,173,1.0,4.0,20,0.00,,---,0.00,VWS V13.00,2013-07-23 23:07:00,
2013-07-23 16:12:00,97.7,49.9,29.80,SE,124,0.0,6.0,20,0.00,,---,0.00,VWS V13.00,2013-07-23 23:12:00,
2013-07-23 16:17:00,97.9,52.6,29.80,SE,145,2.0,7.0,22,0.00,,---,0.00,VWS V13.00,2013-07-23 23:17:00,
2013-07-23 16:22:00,97.9,48.7,29.80,ESE,122,1.0,7.0,19,0.00,,---,0.00,VWS V13.00,2013-07-23 23:22:00,
2013-07-23 16:27:00,97.8,50.0,29.80,ESE,111,0.0,7.0,20,0.00,,---,0.00,VWS V13.00,2013-07-23 23:27:00,
2013-07-23 16:32:00,97.7,49.9,29.80,South,171,3.0,7.0,20,0.00,,---,0.00,VWS V13.00,2013-07-23 23:32:00,
2013-07-23 16:37:00,97.9,50.1,29.80,South,171,0.0,7.0,20,0.00,,---,0.00,VWS V13.00,2013-07-23 23:37:00,
2013-07-23 16:42:00,97.9,47.2,29.79,SSE,155,4.0,10.0,18,0.00,,---,0.00,VWS V13.00,2013-07-23 23:42:00,
2013-07-23 16:47:00,97.6,45.5,29.79,ESE,119,1.0,10.0,17,0.00,,---,0.00,VWS V13.00,2013-07-23 23:47:00,
2013-07-23 16:52:00,97.4,48.3,29.79,SE,138,5.0,10.0,19,0.00,,---,0.00,VWS V13.00,2013-07-23 23:52:00,
2013-07-23 16:58:00,97.3,45.2,29.79,ESE,121,2.0,10.0,17,0.00,,---,0.00,VWS V13.00,2013-07-23 23:58:00,
2013-07-23 17:03:00,97.3,46.8,29.79,SE,141,1.0,6.0,18,0.00,,---,0.00,VWS V13.00,2013-07-24 00:03:00,
2013-07-23 17:08:00,97.2,49.5,29.79,SE,141,0.0,6.0,20,0.00,,---,0.00,VWS V13.00,2013-07-24 00:08:00,
2013-07-23 17:13:00,97.3,46.8,29.79,SSE,162,0.0,6.0,18,0.00,,---,0.00,VWS V13.00,2013-07-24 00:13:00,
2013-07-23 17:18:00,97.6,47.0,29.79,West,269,0.0,6.0,18,0.00,,---,0.00,VWS V13.00,2013-07-24 00:18:00,
2013-07-23 17:23:00,97.8,47.2,29.79,WSW,252,0.0,6.0,18,0.00,,---,0.00,VWS V13.00,2013-07-24 00:23:00,
2013-07-23 17:28:00,98.0,47.3,29.79,South,186,5.0,8.0,18,0.00,,---,0.00,VWS V13.00,2013-07-24 00:28:00,
2013-07-23 17:33:00,97.9,47.2,29.79,SSE,150,0.0,10.0,18,0.00,,---,0.00,VWS V13.00,2013-07-24 00:33:00,
2013-07-23 17:38:00,97.7,47.1,29.79,NE,49,0.0,10.0,18,0.00,,---,0.00,VWS V13.00,2013-07-24 00:38:00,
2013-07-23 17:44:00,97.5,46.9,29.79,South,172,5.0,10.0,18,0.00,,---,0.00,VWS V13.00,2013-07-24 00:44:00,
2013-07-23 17:49:00,97.3,46.8,29.79,SSE,155,4.0,10.0,18,0.00,,---,0.00,VWS V13.00,2013-07-24 00:49:00,
2013-07-23 17:54:00,97.0,43.4,29.78,SSE,163,3.0,10.0,16,0.00,,---,0.00,VWS V13.00,2013-07-24 00:54:00,
2013-07-23 18:00:00,96.7,46.3,29.78,SE,137,0.0,1.0,18,0.00,,---,0.00,VWS V13.00,2013-07-24 01:00:00,
2013-07-23 18:05:00,96.5,44.6,29.78,SE,146,0.0,5.0,17,0.00,,---,0.00,VWS V13.00,2013-07-24 01:05:00,
2013-07-23 18:10:00,96.5,46.1,29.77,SE,138,0.0,5.0,18,0.00,,---,0.00,VWS V13.00,2013-07-24 01:10:00,
2013-07-23 18:15:00,96.5,46.1,29.77,SE,142,0.0,5.0,18,0.00,,---,0.00,VWS V13.00,2013-07-24 01:15:00,
2013-07-23 18:21:00,96.6,46.2,29.77,SE,142,0.0,5.0,18,0.00,,---,0.00,VWS V13.00,2013-07-24 01:21:00,
2013-07-23 18:26:00,96.7,47.7,29.77,SE,145,0.0,5.0,19,0.00,,---,0.00,VWS V13.00,2013-07-24 01:26:00,
2013-07-23 18:31:00,96.9,44.9,29.77,WNW,282,0.0,2.0,17,0.00,,---,0.00,VWS V13.00,2013-07-24 01:31:00,
2013-07-23 18:36:00,97.1,48.0,29.77,SW,217,0.0,3.0,19,0.00,,---,0.00,VWS V13.00,2013-07-24 01:36:00,
2013-07-23 18:41:00,96.9,46.4,29.77,SSW,213,0.0,3.0,18,0.00,,---,0.00,VWS V13.00,2013-07-24 01:41:00,
2013-07-23 18:46:00,96.8,46.3,29.77,SSW,213,1.0,3.0,18,0.00,,---,0.00,VWS V13.00,2013-07-24 01:46:00,
2013-07-23 18:51:00,96.8,44.8,29.77,SSW,213,0.0,3.0,17,0.00,,---,0.00,VWS V13.00,2013-07-24 01:51:00,
2013-07-23 18:56:00,96.7,44.8,29.77,SSW,213,0.0,3.0,17,0.00,,---,0.00,VWS V13.00,2013-07-24 01:56:00,
2013-07-23 19:02:00,96.7,47.7,29.76,SSW,213,0.0,1.0,19,0.00,,---,0.00,VWS V13.00,2013-07-24 02:02:00,
2013-07-23 19:07:00,96.5,47.5,29.76,SSW,213,1.0,1.0,19,0.00,,---,0.00,VWS V13.00,2013-07-24 02:07:00,
2013-07-23 19:12:00,96.5,46.1,29.76,SSW,211,0.0,3.0,18,0.00,,---,0.00,VWS V13.00,2013-07-24 02:12:00,
2013-07-23 19:17:00,96.5,46.1,29.76,SSW,212,0.0,3.0,18,0.00,,---,0.00,VWS V13.00,2013-07-24 02:17:00,
2013-07-23 19:22:00,96.3,46.0,29.76,SSW,212,0.0,3.0,18,0.00,,---,0.00,VWS V13.00,2013-07-24 02:22:00,
2013-07-23 19:28:00,96.2,44.4,29.76,SSW,211,0.0,3.0,17,0.00,,---,0.00,VWS V13.00,2013-07-24 02:28:00,
2013-07-23 19:33:00,96.2,45.9,29.76,SSW,211,0.0,3.0,18,0.00,,---,0.00,VWS V13.00,2013-07-24 02:33:00,
2013-07-23 19:38:00,95.9,47.0,29.76,SSW,211,0.0,3.0,19,0.00,,---,0.00,VWS V13.00,2013-07-24 02:38:00,
2013-07-23 19:43:00,95.6,45.4,29.76,SSW,211,0.0,3.0,18,0.00,,---,0.00,VWS V13.00,2013-07-24 02:43:00,
2013-07-23 19:49:00,95.4,45.2,29.77,SSW,211,0.0,3.0,18,0.00,,---,0.00,VWS V13.00,2013-07-24 02:49:00,
2013-07-23 19:55:00,95.0,44.9,29.77,SSW,211,0.0,3.0,18,0.00,,---,0.00,VWS V13.00,2013-07-24 02:55:00,
2013-07-23 20:00:00,94.6,44.6,29.76,SSW,211,0.0,0.0,18,0.00,,---,0.00,VWS V13.00,2013-07-24 03:00:00,
2013-07-23 20:05:00,94.0,46.9,29.77,SSW,211,0.0,0.0,20,0.00,,---,0.00,VWS V13.00,2013-07-24 03:05:00,
2013-07-23 20:11:00,93.5,50.2,29.76,SSW,211,0.0,3.0,23,0.00,,---,0.00,VWS V13.00,2013-07-24 03:11:00,
2013-07-23 20:16:00,92.6,49.4,29.76,SSW,211,0.0,3.0,23,0.00,,---,0.00,VWS V13.00,2013-07-24 03:16:00,
2013-07-23 20:21:00,91.7,50.9,29.77,SSW,211,0.0,3.0,25,0.00,,---,0.00,VWS V13.00,2013-07-24 03:21:00,
2013-07-23 20:27:00,90.7,51.1,29.77,SSW,211,1.0,3.0,26,0.00,,---,0.00,VWS V13.00,2013-07-24 03:27:00,
2013-07-23 20:32:00,89.5,52.1,29.77,SSW,211,3.0,4.0,28,0.00,,---,0.00,VWS V13.00,2013-07-24 03:32:00,
2013-07-23 20:37:00,88.2,52.0,29.78,SSW,212,3.0,4.0,29,0.00,,---,0.00,VWS V13.00,2013-07-24 03:37:00,
2013-07-23 20:42:00,86.8,52.6,29.78,SSW,212,2.0,4.0,31,0.00,,---,0.00,VWS V13.00,2013-07-24 03:42:00,
2013-07-23 20:47:00,85.5,52.3,29.78,SSW,212,2.0,4.0,32,0.00,,---,0.00,VWS V13.00,2013-07-24 03:47:00,
2013-07-23 20:52:00,84.1,51.9,29.78,SSW,213,3.0,4.0,33,0.00,,---,0.00,VWS V13.00,2013-07-24 03:52:00,
2013-07-23 20:57:00,82.8,50.8,29.79,SSW,213,3.0,4.0,33,0.00,,---,0.00,VWS V13.00,2013-07-24 03:57:00,
2013-07-23 21:01:00,82.1,51.0,29.78,SSW,213,2.0,3.0,34,0.00,,---,0.00,VWS V13.00,2013-07-24 04:01:00,
2013-07-23 21:06:00,81.1,50.9,29.79,SSW,213,2.0,3.0,35,0.00,,---,0.00,VWS V13.00,2013-07-24 04:06:00,
2013-07-23 21:11:00,80.3,50.2,29.79,SSW,213,2.0,3.0,35,0.00,,---,0.00,VWS V13.00,2013-07-24 04:11:00,
2013-07-23 21:16:00,79.6,50.3,29.79,SSW,213,0.0,3.0,36,0.00,,---,0.00,VWS V13.00,2013-07-24 04:16:00,
2013-07-23 21:21:00,78.7,48.8,29.79,SW,214,1.0,3.0,35,0.00,,---,0.00,VWS V13.00,2013-07-24 04:21:00,
2013-07-23 21:26:00,78.1,48.2,29.80,SW,214,1.0,3.0,35,0.00,,---,0.00,VWS V13.00,2013-07-24 04:26:00,
2013-07-23 21:31:00,77.6,48.6,29.80,SW,214,0.0,2.0,36,0.00,,---,0.00,VWS V13.00,2013-07-24 04:31:00,
2013-07-23 21:36:00,77.1,48.8,29.80,SW,215,2.0,3.0,37,0.00,,---,0.00,VWS V13.00,2013-07-24 04:36:00,
2013-07-23 21:41:00,76.5,49.0,29.80,SW,215,2.0,4.0,38,0.00,,---,0.00,VWS V13.00,2013-07-24 04:41:00,
2013-07-23 21:46:00,75.9,49.2,29.80,SW,215,2.0,4.0,39,0.00,,---,0.00,VWS V13.00,2013-07-24 04:46:00,
2013-07-23 21:51:00,75.4,48.8,29.80,SW,215,3.0,4.0,39,0.00,,---,0.00,VWS V13.00,2013-07-24 04:51:00,
2013-07-23 21:56:00,74.8,48.9,29.80,SW,215,2.0,4.0,40,0.00,,---,0.00,VWS V13.00,2013-07-24 04:56:00,
2013-07-23 22:01:00,74.2,49.0,29.80,SW,215,1.0,3.0,41,0.00,,---,0.00,VWS V13.00,2013-07-24 05:01:00,
2013-07-23 22:06:00,73.7,48.6,29.80,SW,214,2.0,3.0,41,0.00,,---,0.00,VWS V13.00,2013-07-24 05:06:00,
2013-07-23 22:11:00,73.1,48.7,29.80,SW,217,2.0,4.0,42,0.00,,---,0.00,VWS V13.00,2013-07-24 05:11:00,
2013-07-23 22:16:00,72.5,48.8,29.80,SW,217,1.0,4.0,43,0.00,,---,0.00,VWS V13.00,2013-07-24 05:16:00,
2013-07-23 22:21:00,71.9,48.2,29.80,SW,217,1.0,4.0,43,0.00,,---,0.00,VWS V13.00,2013-07-24 05:21:00,
2013-07-23 22:26:00,71.3,48.3,29.80,SW,217,0.0,4.0,44,0.00,,---,0.00,VWS V13.00,2013-07-24 05:26:00,
2013-07-23 22:31:00,71.0,48.0,29.80,SW,217,3.0,3.0,44,0.00,,---,0.00,VWS V13.00,2013-07-24 05:31:00,
2013-07-23 22:36:00,70.5,48.2,29.80,SW,217,1.0,3.0,45,0.00,,---,0.00,VWS V13.00,2013-07-24 05:36:00,
2013-07-23 22:41:00,70.0,48.3,29.80,SW,217,3.0,3.0,46,0.00,,---,0.00,VWS V13.00,2013-07-24 05:41:00,
2013-07-23 22:46:00,69.5,47.2,29.81,SW,217,0.0,3.0,45,0.00,,---,0.00,VWS V13.00,2013-07-24 05:46:00,
2013-07-23 22:51:00,69.1,46.9,29.81,SW,218,0.0,3.0,45,0.00,,---,0.00,VWS V13.00,2013-07-24 05:51:00,
2013-07-23 22:56:00,68.8,46.6,29.80,SW,217,2.0,3.0,45,0.00,,---,0.00,VWS V13.00,2013-07-24 05:56:00,
2013-07-23 23:01:00,68.5,46.9,29.79,SW,218,1.0,2.0,46,0.00,,---,0.00,VWS V13.00,2013-07-24 06:01:00,
2013-07-23 23:06:00,68.2,46.7,29.80,SW,218,1.0,3.0,46,0.00,,---,0.00,VWS V13.00,2013-07-24 06:06:00,
2013-07-23 23:11:00,67.9,47.0,29.80,SW,218,0.0,3.0,47,0.00,,---,0.00,VWS V13.00,2013-07-24 06:11:00,
2013-07-23 23:16:00,67.5,46.6,29.80,SW,217,0.0,3.0,47,0.00,,---,0.00,VWS V13.00,2013-07-24 06:16:00,
2013-07-23 23:21:00,67.1,46.8,29.80,SW,218,1.0,3.0,48,0.00,,---,0.00,VWS V13.00,2013-07-24 06:21:00,
2013-07-23 23:26:00,66.8,46.5,29.80,SW,218,0.0,3.0,48,0.00,,---,0.00,VWS V13.00,2013-07-24 06:26:00,
2013-07-23 23:31:00,66.5,46.2,29.80,SW,218,1.0,2.0,48,0.00,,---,0.00,VWS V13.00,2013-07-24 06:31:00,
2013-07-23 23:36:00,66.1,45.9,29.81,SW,218,2.0,2.0,48,0.00,,---,0.00,VWS V13.00,2013-07-24 06:36:00,
2013-07-23 23:41:00,65.9,46.2,29.81,SW,218,2.0,3.0,49,0.00,,---,0.00,VWS V13.00,2013-07-24 06:41:00,
2013-07-23 23:46:00,65.7,44.9,29.81,SW,217,2.0,3.0,47,0.00,,---,0.00,VWS V13.00,2013-07-24 06:46:00,
2013-07-23 23:51:00,65.6,45.4,29.81,SW,218,2.0,3.0,48,0.00,,---,0.00,VWS V13.00,2013-07-24 06:51:00,
2013-07-23 23:56:00,65.4,45.8,29.81,SW,218,1.0,3.0,49,0.00,,---,0.00,VWS V13.00,2013-07-24 06:56:00,